Location: Curries
(43.0713°N, 80.7206°W)
Time: 14:51:16
(UTC+00:00)

ISS - Visible Passes

Search period start: 20 May 2022 00:00
Search period end: 30 May 2022 00:00
Orbit: 414 x 421 km, 51.6° (Epoch: 20 May)

Date Brightness Start Highest point End Pass type
(mag) Time Alt. Az. Time Alt. Az. Time Alt. Az.
20 May -1.3 01:56:49 10° WNW 01:59:38 24° NNW 02:02:27 10° NE visible
20 May -1.1 03:34:43 10° NW 03:37:13 19° N 03:39:40 10° NE visible
20 May -1.1 05:11:27 10° NW 05:12:34 19° NW 05:12:34 19° NW visible
21 May -1.0 02:46:36 10° NW 02:49:03 18° N 02:51:29 10° NE visible
21 May -1.8 04:23:33 10° NW 04:26:06 28° N 04:26:06 28° N visible
22 May -1.1 01:58:21 10° NW 02:00:51 19° N 02:03:21 10° NE visible
22 May -1.6 03:35:38 10° NW 03:38:26 24° NNE 03:39:38 19° NE visible
22 May -0.8 05:12:11 10° WNW 05:12:32 12° WNW 05:12:32 12° WNW visible
23 May -1.3 02:47:38 10° NW 02:50:15 21° N 02:52:52 10° ENE visible
23 May -1.8 04:24:13 10° NW 04:26:04 29° NW 04:26:04 29° NW visible
24 May -1.2 01:59:32 10° NW 02:02:01 19° N 02:04:30 10° NE visible
24 May -2.6 03:36:16 10° NW 03:39:27 39° NNE 03:39:36 39° NNE visible
25 May -2.0 02:48:17 10° NW 02:51:17 29° NNE 02:53:09 17° ENE visible
25 May -1.4 04:24:56 10° WNW 04:26:03 19° WNW 04:26:03 19° WNW visible
26 May -1.7 02:00:17 10° NW 02:03:04 24° NNE 02:05:51 10° ENE visible
26 May -3.3 03:36:49 10° WNW 03:39:36 58° NW 03:39:36 58° NW visible
27 May -3.3 02:48:47 10° NW 02:52:05 56° NNE 02:53:10 36° E visible
27 May -0.8 04:26:03 10° W 04:26:03 10° W 04:26:03 10° W visible
28 May -2.6 02:00:44 10° NW 02:03:55 38° NNE 02:06:44 12° E visible
28 May -2.2 03:37:35 10° WNW 03:39:39 27° WSW 03:39:39 27° WSW visible
29 May -3.6 02:49:19 10° WNW 02:52:37 58° SW 02:53:14 47° S visible
